{"data":{"norad_id":64847,"intl_designator":"2025-152F","name":"STARLINK-34746","alt_names":[],"object_type":"PAYLOAD","status":"ACTIVE","operator":null,"country":"US","launch_date":"2025-07-19","launch_site_code":"AFWTR","launch_vehicle":null,"mission":null,"orbit_class":"UNKNOWN","rcs_meters":null,"size_class":null,"mass_kg":null,"dimensions":null,"purposes":["comms"],"wikipedia_slug":null,"has_3d_model":false,"image_url":null,"decayed_at":null,"tle_current":{"epoch":"2026-09-20T13:09:45.677376Z","epoch_age_seconds":120059,"freshness":"FRESH","line1":"1 64847U 25152F   26263.54844534  .00013891  00000+0  43164-3 0  9992","line2":"2 64847  97.2847 114.1429 0001466  61.1178 299.0211 15.33456442 64833","mean_motion":15.33456442,"eccentricity":0.0001466,"inclination_deg":97.2847,"raan_deg":114.1429,"arg_perigee_deg":61.1178,"mean_anomaly_deg":299.0211,"bstar":0.00043164,"rev_number":6483,"period_min":93.905503968661,"perigee_km":464.50585282509,"apogee_km":466.5124098708,"semimajor_km":6843.6461313479,"source":"CELESTRAK","updated_at":"2026-09-21T09:00:35.449358Z"}}}